User: anonymous   Login
Location: Unspecified
(0.0000°N, 0.0000°E)
Time: 00:19:54
(UTC+00:00)
Language:

DSP F18 - Orbit

View from above orbital plane
View from above orbital plane
View from above satellite
View from above satellite

Ground track
Ground track

The orbit data is extracted from the following two-line orbital elements,

1 24737U 97008A   17046.65894543 0.00000000  00000-0  00000-0 0    02
2 24737  12.6998  31.2080 0001998 143.8529 216.2293  1.00270000    08
Epoch (UTC): 15 February 2017 15:48:52
Eccentricity: 0.0001998
inclination: 12.6998°
perigee height: 35778 km
apogee height: 35795 km
right ascension of ascending node: 31.2080°
argument of perigee: 143.8529°
revolutions per day: 1.00270000
mean anomaly at epoch: 216.2293°
orbit number at epoch: 0

The dashed part of the orbit path shows where the satellite is in the earth's shadow,  

DLR